Regional Weather Roundup
Issued by NWS Raleigh/Durham, NC

Home | Current Version | Previous Version | Text Only | Print | Product List | Glossary On
Versions: 1 2 3 4 5 6 7 8 9 10 11 12 13 14 15 16 17 18 19 20 21 22 23 24 25 26 27 28 29 30 31 32 33 34 35 36 37 38 39 40 41 42 43 44 45 46 47
000
ASUS42 KRAH 132110
RWRRAH
NORTH CAROLINA WEATHER ROUNDUP
NATIONAL WEATHER SERVICE RALEIGH NC
400 PM EST SAT FEB 13 2016

NOTE: "FAIR" INDICATES FEW OR NO CLOUDS BELOW 12,000 FEET WITH NO
SIGNIFICANT WEATHER AND/OR OBSTRUCTIONS TO VISIBILITY.

NCZ001-053-055-056-065-067-132200-
WESTERN NORTH CAROLINA

CITY           SKY/WX    TMP DP  RH WIND       PRES   REMARKS
ASHEVILLE      SUNNY     29   3  33 N15G23    30.25R WCI  18
JEFFERSON      SUNNY     17  -5  37 NW15G24   30.16R WCI   3
MORGANTON      SUNNY     34  -3  20 N12G17    30.32R WCI  25
HICKORY        SUNNY     34  -2  21 NW13G18   30.26R WCI  25
RUTHERFORDTON  SUNNY     37   1  22 N6        30.28R WCI  33
MOUNT AIRY     SUNNY     29  -7  21 NW16G24   30.30R WCI  17
BOONE          SUNNY     19  -2  40 NW9G23    30.17R WCI   8
$$

NCZ021-022-025-041-071-084-088-132200-
CENTRAL NORTH CAROLINA

CITY           SKY/WX    TMP DP  RH WIND       PRES   REMARKS
CHARLOTTE      SUNNY     40   0  18 NW9G17    30.28R WCI  34
GREENSBORO     SUNNY     31  -4  22 NW20      30.28R WCI  19
WINSTON-SALEM  SUNNY     30  -3  24 NW14      30.30R WCI  19
RALEIGH-DURHAM MOSUNNY   33  -2  22 N7G16     30.29S WCI  27
FORT BRAGG     SUNNY     38  -1  19 NW14G21   30.28R WCI  30
FAYETTEVILLE   SUNNY     38   3  23 NW15G26   30.29R WCI  29
BURLINGTON     SUNNY     32  -3  22 W13G24    30.29R WCI  22
LAURINBURG     SUNNY     40   0  18 N16G23    30.29R WCI  31
$$

NCZ011-015-027-028-043-044-047-080-103-132200-
NORTHEASTERN NORTH CAROLINA

CITY           SKY/WX    TMP DP  RH WIND       PRES   REMARKS
ROCKY MT-WILSO SUNNY     33  -1  23 NW16G22   30.29R WCI  23
GREENVILLE     SUNNY     34   3  27 NW9G18    30.29R WCI  26
WASHINGTON     SUNNY     33   3  28 NW15G23   30.27S WCI  23
ELIZABETH CITY SUNNY     32   6  33 NW16G25   30.25R WCI  21
MANTEO         SUNNY     32   4  30 NW15G22   30.25R WCI  22
CAPE HATTERAS  SUNNY     35  10  35 NW15G21   30.24R WCI  25
$$

NCZ078-087-090-091-093-098-101-132200-
SOUTHEASTERN NORTH CAROLINA

CITY           SKY/WX    TMP DP  RH WIND       PRES   REMARKS
LUMBERTON      SUNNY     41   8  25 N13G22    30.28R
GOLDSBORO      SUNNY     36   1  23 W18       30.27R WCI  25
KINSTON        SUNNY     36   5  27 NW12G22   30.29R WCI  27
KENANSVILLE    SUNNY     35   7  31 NW12G17   30.30R WCI  26
NEW BERN       SUNNY     35   5  28 NW15G24   30.28R WCI  25
CHERRY POINT   SUNNY     37   8  30 NW16      30.27R WCI  28
BEAUFORT       SUNNY     35  11  36 N15       30.26R WCI  25
JACKSONVILLE   SUNNY     37   6  27 NW17G25   30.27R WCI  27
WILMINGTON     SUNNY     41  10  28 NW21      30.26R
$$




USA.gov is the U.S. government's official web portal to all federal, state and local government web resources and services.